Location: Mauries
(43.6188°N, 0.3322°W)
Time: 07:51:13
(UTC+00:00)

Envisat - Visible Passes

Search period start: 12 March 2026 00:00
Search period end: 22 March 2026 00:00
Orbit: 761 x 763 km, 98.4° (Epoch: 11 March)

Date Brightness Start Highest point End Pass type
(mag) Time Alt. Az. Time Alt. Az. Time Alt. Az.
12 Mar 5.0 03:01:21 10° N 03:03:07 22° N 03:03:07 22° N visible
13 Mar 5.4 02:23:37 10° NNE 02:25:00 18° NNE 02:25:00 18° NNE visible
13 Mar 4.9 04:03:26 10° NNW 04:05:07 16° NNW 04:05:07 16° NNW visible
14 Mar 5.9 01:46:27 10° NE 01:46:52 12° NE 01:46:52 12° NE visible
14 Mar 4.7 03:24:53 10° N 03:26:59 23° NNW 03:26:59 23° NNW visible
15 Mar 4.9 02:46:51 10° NNE 02:48:52 25° NNE 02:48:52 25° NNE visible
15 Mar 5.0 04:27:50 10° NNW 04:29:01 12° NW 04:29:01 12° NW visible
16 Mar 5.4 02:09:18 10° NNE 02:10:45 18° NE 02:10:45 18° NE visible
16 Mar 4.6 03:48:36 10° N 03:50:53 21° NNW 03:50:53 21° NNW visible
17 Mar 6.0 01:32:31 10° NE 01:32:37 10° NE 01:32:37 10° NE visible
17 Mar 4.5 03:10:17 10° N 03:12:46 28° N 03:12:46 28° N visible
18 Mar 4.9 02:32:25 10° NNE 02:34:38 26° NNE 02:34:38 26° NNE visible
18 Mar 4.8 04:12:38 10° NNW 04:14:45 16° NW 04:14:45 16° NW visible
19 Mar 5.5 01:55:06 10° NE 01:56:30 17° NE 01:56:30 17° NE visible
19 Mar 4.4 03:33:52 10° N 03:36:38 27° NNW 03:36:38 27° NNW visible
20 Mar 4.3 02:55:44 10° N 02:58:30 33° N 02:58:30 33° N visible
20 Mar 5.1 04:37:33 10° NW 04:38:39 11° NW 04:38:39 11° NW visible
21 Mar 4.9 02:18:03 10° NNE 02:20:23 26° NE 02:20:23 26° NE visible
21 Mar 4.5 03:57:41 10° NNW 04:00:31 21° NW 04:00:31 21° NW visible
